• Em Portugal
  • Lista de países
  • Para 7 dias
  • Temperatura da água
  • Mapas de satélite
  • Mapa do tempo
  • Widgets de tempo
  • user-avatar
    Iniciar Sessão

    Previsão horária em Balchik

    Hoje, 25 Setembro, Terça-feira

    Tempo Temperatura Precipitação Vento Pressão Humidade
    00:00 +12°C° 0.5 mm 7 m/s 741 mmHg 72%
    01:00 +11°C° 0.5 mm 7 m/s 742 mmHg 74%
    02:00 +9°C° 0 mm 7 m/s 742 mmHg 74%
    03:00 +9°C° 0.4 mm 6 m/s 743 mmHg 73%
    04:00 +9°C° 0.4 mm 5 m/s 743 mmHg 71%
    05:00 +9°C° 0.4 mm 5 m/s 744 mmHg 69%
    06:00 +11°C° 0 mm 4 m/s 744 mmHg 68%
    07:00 +11°C° 0 mm 4 m/s 745 mmHg 67%
    08:00 +10°C° 0 mm 5 m/s 745 mmHg 67%
    09:00 +12°C° 0 mm 5 m/s 745 mmHg 60%
    10:00 +13°C° 0 mm 5 m/s 746 mmHg 54%
    11:00 +14°C° 0 mm 5 m/s 746 mmHg 48%
    12:00 +15°C° 0.1 mm 5 m/s 746 mmHg 45%
    13:00 +15°C° 0.1 mm 5 m/s 746 mmHg 41%
    14:00 +16°C° 0.1 mm 5 m/s 746 mmHg 38%
    15:00 +15°C° 0 mm 5 m/s 746 mmHg 37%
    16:00 +15°C° 0 mm 5 m/s 746 mmHg 35%
    17:00 +15°C° 0 mm 5 m/s 746 mmHg 34%
    18:00 +14°C° 0 mm 5 m/s 747 mmHg 37%
    19:00 +13°C° 0 mm 5 m/s 747 mmHg 40%
    20:00 +11°C° 0 mm 4 m/s 748 mmHg 43%
    21:00 +11°C° 0 mm 4 m/s 748 mmHg 45%
    22:00 +10°C° 0 mm 4 m/s 749 mmHg 47%
    23:00 +9°C° 0 mm 5 m/s 749 mmHg 49%

    Amanhã, 26 Setembro, Quarta-feira

    Tempo Temperatura Precipitação Vento Pressão Humidade
    00:00 +8°C° 0 mm 5 m/s 750 mmHg 50%
    01:00 +8°C° 0 mm 5 m/s 750 mmHg 51%
    02:00 +7°C° 0 mm 6 m/s 750 mmHg 52%
    03:00 +7°C° 0 mm 6 m/s 750 mmHg 55%
    04:00 +5°C° 0 mm 6 m/s 750 mmHg 58%
    05:00 +5°C° 0 mm 6 m/s 750 mmHg 61%
    06:00 +7°C° 0 mm 6 m/s 751 mmHg 59%
    07:00 +6°C° 0 mm 7 m/s 751 mmHg 56%
    08:00 +7°C° 0 mm 8 m/s 752 mmHg 54%
    09:00 +10°C° 0 mm 8 m/s 752 mmHg 49%
    10:00 +11°C° 0 mm 8 m/s 752 mmHg 44%
    11:00 +12°C° 0 mm 8 m/s 752 mmHg 39%
    12:00 +13°C° 0 mm 8 m/s 752 mmHg 37%
    13:00 +13°C° 0 mm 8 m/s 752 mmHg 35%
    14:00 +15°C° 0 mm 8 m/s 752 mmHg 33%
    15:00 +14°C° 0 mm 7 m/s 752 mmHg 33%
    16:00 +14°C° 0 mm 7 m/s 751 mmHg 34%
    17:00 +14°C° 0 mm 7 m/s 751 mmHg 34%
    18:00 +11°C° 0 mm 6 m/s 751 mmHg 36%
    19:00 +10°C° 0 mm 6 m/s 752 mmHg 39%
    20:00 +9°C° 0 mm 5 m/s 752 mmHg 41%
    21:00 +9°C° 0 mm 5 m/s 752 mmHg 42%
    22:00 +8°C° 0 mm 5 m/s 752 mmHg 43%
    23:00 +7°C° 0 mm 5 m/s 752 mmHg 44%

    Depois de amanhã, 27 Setembro, Quinta-feira

    Tempo Temperatura Precipitação Vento Pressão Humidade
    00:00 +7°C° 0 mm 5 m/s 752 mmHg 45%
    01:00 +6°C° 0 mm 4 m/s 752 mmHg 46%
    02:00 +6°C° 0 mm 4 m/s 752 mmHg 47%
    03:00 +6°C° 0 mm 4 m/s 751 mmHg 48%
    04:00 +5°C° 0 mm 4 m/s 751 mmHg 49%
    05:00 +5°C° 0 mm 4 m/s 751 mmHg 50%
    06:00 +6°C° 0 mm 4 m/s 751 mmHg 47%
    07:00 +7°C° 0 mm 4 m/s 751 mmHg 45%
    08:00 +8°C° 0 mm 4 m/s 751 mmHg 42%
    09:00 +11°C° 0 mm 4 m/s 751 mmHg 38%
    10:00 +12°C° 0 mm 4 m/s 751 mmHg 34%
    11:00 +14°C° 0 mm 4 m/s 751 mmHg 30%
    12:00 +15°C° 0 mm 4 m/s 750 mmHg 28%
    13:00 +17°C° 0 mm 3 m/s 750 mmHg 26%
    14:00 +18°C° 0 mm 3 m/s 749 mmHg 23%
    15:00 +17°C° 0 mm 3 m/s 749 mmHg 24%
    16:00 +17°C° 0 mm 3 m/s 749 mmHg 25%
    17:00 +17°C° 0 mm 2 m/s 748 mmHg 26%
    18:00 +15°C° 0 mm 2 m/s 748 mmHg 30%
    19:00 +14°C° 0 mm 2 m/s 748 mmHg 33%
    20:00 +12°C° 0 mm 1 m/s 748 mmHg 37%
    21:00 +12°C° 0 mm 1 m/s 748 mmHg 38%
    22:00 +12°C° 0 mm 1 m/s 748 mmHg 40%
    23:00 +11°C° 0 mm 1 m/s 748 mmHg 41%

    28 Setembro, Sexta-feira

    Tempo Temperatura Precipitação Vento Pressão Humidade
    00:00 +11°C° 0 mm 1 m/s 747 mmHg 41%
    01:00 +11°C° 0 mm 1 m/s 747 mmHg 41%
    02:00 +11°C° 0 mm 1 m/s 747 mmHg 41%
    03:00 +11°C° 0 mm 1 m/s 747 mmHg 41%
    04:00 +11°C° 0 mm 1 m/s 746 mmHg 40%
    05:00 +11°C° 0 mm 1 m/s 746 mmHg 40%
    06:00 +12°C° 0 mm 1 m/s 746 mmHg 37%
    07:00 +13°C° 0 mm 1 m/s 746 mmHg 35%
    08:00 +14°C° 0 mm 1 m/s 746 mmHg 32%
    09:00 +16°C° 0 mm 1 m/s 746 mmHg 31%
    10:00 +19°C° 0 mm 1 m/s 746 mmHg 29%
    11:00 +20°C° 0 mm 1 m/s 745 mmHg 27%
    12:00 +21°C° 0 mm 1 m/s 745 mmHg 28%
    13:00 +21°C° 0 mm 2 m/s 744 mmHg 29%
    14:00 +21°C° 0 mm 2 m/s 744 mmHg 30%
    15:00 +21°C° 0 mm 2 m/s 743 mmHg 33%
    16:00 +20°C° 0 mm 2 m/s 743 mmHg 35%
    17:00 +20°C° 0 mm 2 m/s 742 mmHg 38%
    18:00 +18°C° 0 mm 2 m/s 742 mmHg 44%
    19:00 +17°C° 0 mm 2 m/s 742 mmHg 51%
    20:00 +15°C° 0 mm 2 m/s 742 mmHg 57%
    21:00 +15°C° 0 mm 2 m/s 742 mmHg 60%
    22:00 +14°C° 0 mm 2 m/s 742 mmHg 63%
    23:00 +14°C° 0 mm 2 m/s 741 mmHg 66%

    29 Setembro, Sábado

    Tempo Temperatura Precipitação Vento Pressão Humidade
    00:00 +14°C° 0 mm 1 m/s 741 mmHg 67%
    01:00 +13°C° 0 mm 1 m/s 741 mmHg 69%
    02:00 +13°C° 0 mm 1 m/s 741 mmHg 70%
    03:00 +13°C° 0 mm 1 m/s 740 mmHg 71%
    04:00 +13°C° 0 mm 1 m/s 740 mmHg 71%
    05:00 +13°C° 0 mm 1 m/s 740 mmHg 72%
    06:00 +14°C° 0 mm 1 m/s 740 mmHg 68%
    07:00 +15°C° 0 mm 1 m/s 740 mmHg 63%
    08:00 +16°C° 0 mm 1 m/s 740 mmHg 59%
    09:00 +19°C° 0 mm 1 m/s 740 mmHg 54%
    10:00 +20°C° 0 mm 1 m/s 740 mmHg 49%
    11:00 +21°C° 0 mm 2 m/s 740 mmHg 43%
    12:00 +21°C° 0 mm 2 m/s 740 mmHg 42%
    13:00 +23°C° 0 mm 2 m/s 740 mmHg 40%
    14:00 +24°C° 0 mm 2 m/s 739 mmHg 38%
    15:00 +23°C° 0 mm 2 m/s 739 mmHg 40%
    16:00 +23°C° 0 mm 2 m/s 739 mmHg 43%
    17:00 +21°C° 0 mm 3 m/s 739 mmHg 45%
    18:00 +19°C° 0 mm 2 m/s 740 mmHg 51%
    19:00 +18°C° 0 mm 2 m/s 740 mmHg 58%
    20:00 +16°C° 0 mm 2 m/s 740 mmHg 65%
    21:00 +16°C° 0 mm 2 m/s 741 mmHg 67%
    22:00 +15°C° 0 mm 2 m/s 741 mmHg 70%
    23:00 +15°C° 0 mm 2 m/s 741 mmHg 72%

    30 Setembro, Domingo

    Tempo Temperatura Precipitação Vento Pressão Humidade
    00:00 +13°C° 0 mm 3 m/s 741 mmHg 76%
    01:00 +13°C° 0 mm 4 m/s 742 mmHg 79%
    02:00 +13°C° 0 mm 5 m/s 742 mmHg 83%
    03:00 +11°C° 0 mm 6 m/s 742 mmHg 84%
    04:00 +11°C° 0 mm 6 m/s 742 mmHg 85%
    05:00 +11°C° 0 mm 6 m/s 742 mmHg 86%
    06:00 +13°C° 0 mm 6 m/s 743 mmHg 84%
    07:00 +13°C° 0 mm 6 m/s 743 mmHg 81%
    08:00 +14°C° 0 mm 7 m/s 743 mmHg 79%
    09:00 +14°C° 0 mm 7 m/s 743 mmHg 76%
    10:00 +15°C° 0 mm 7 m/s 744 mmHg 73%
    11:00 +15°C° 0 mm 7 m/s 744 mmHg 70%
    12:00 +16°C° 0 mm 7 m/s 743 mmHg 67%
    13:00 +17°C° 0 mm 7 m/s 743 mmHg 63%
    14:00 +17°C° 0 mm 7 m/s 743 mmHg 60%
    15:00 +17°C° 0 mm 7 m/s 743 mmHg 60%
    16:00 +17°C° 0 mm 6 m/s 743 mmHg 61%
    17:00 +17°C° 0 mm 6 m/s 743 mmHg 61%
    18:00 +16°C° 0 mm 6 m/s 743 mmHg 67%
    19:00 +15°C° 0 mm 5 m/s 743 mmHg 73%
    20:00 +14°C° 0 mm 5 m/s 743 mmHg 79%
    21:00 +13°C° 0 mm 5 m/s 743 mmHg 81%
    22:00 +13°C° 0 mm 5 m/s 743 mmHg 83%
    23:00 +12°C° 0 mm 4 m/s 742 mmHg 85%
    Mostrar mais